This is the latest recevied weather packets stored in our database for station/object KQ7A. If no packets are shown the sender has not sent any weather packets the latest 10 day(s).
| Time | Temp. | Humidity | Pressure | Rain* | Wind** | Luminosity | Snow |
|---|---|---|---|---|---|---|---|
| 1777900576 | 6.67° C | 91% | 1012.5 hPa | 0 mm | - | 8 W/m² | - |
| 1777899666 | 6.67° C | 92% | 1012.6 hPa | 0 mm | - | 0 W/m² | - |
| 1777899364 | 6.11° C | 92% | 1012.6 hPa | 0 mm | - | 0 W/m² | - |
| 1777898153 | 6.67° C | 89% | 1012.8 hPa | 0 mm | - | 0 W/m² | - |
| 1777897850 | 6.67° C | 89% | 1012.5 hPa | 0 mm | - | 0 W/m² | - |
| 1777897546 | 7.22° C | 88% | 1012.2 hPa | 0 mm | - | 0 W/m² | - |
| 1777897241 | 7.22° C | 87% | 1012.2 hPa | 0 mm | - | 0 W/m² | - |
| 1777896938 | 7.22° C | 85% | 1012.6 hPa | 0 mm | - | 0 W/m² | - |
| 1777896635 | 7.22° C | 87% | 1012.4 hPa | 0 mm | - | 0 W/m² | - |
| 1777896332 | 7.22° C | 87% | 1012.6 hPa | 0 mm | - | 0 W/m² | - |
| 1777896030 | 7.22° C | 87% | 1012.3 hPa | 0 mm | - | 0 W/m² | - |
| 1777895728 | 7.22° C | 88% | 1012.3 hPa | 0 mm | - | 0 W/m² | - |
| 1777895425 | 6.67° C | 88% | 1012.5 hPa | 0 mm | - | 0 W/m² | - |
| 1777895122 | 6.67° C | 88% | 1012.6 hPa | 0 mm | - | 0 W/m² | - |
| 1777894820 | 6.67° C | 89% | 1012.6 hPa | 0 mm | - | 0 W/m² | - |
| 1777894516 | 7.22° C | 89% | 1012.5 hPa | 0 mm | - | 0 W/m² | - |
| 1777894214 | 7.22° C | 87% | 1012.5 hPa | 0 mm | - | 0 W/m² | - |
| 1777893910 | 6.67° C | 87% | 1012.5 hPa | 0 mm | - | 0 W/m² | - |
| 1777893607 | 6.67° C | 89% | 1012.6 hPa | 0 mm | - | 0 W/m² | - |
| 1777893303 | 7.22° C | 88% | 1012.4 hPa | 0 mm | - | 0 W/m² | - |
| 1777892999 | 7.22° C | 88% | 1012.8 hPa | 0 mm | - | 0 W/m² | - |
| 1777892697 | 7.22° C | 86% | 1012.8 hPa | 0 mm | - | 0 W/m² | - |
| 1777892392 | 7.22° C | 86% | 1012.8 hPa | 0 mm | - | 0 W/m² | - |
| 1777891786 | 7.78° C | 87% | 1012.8 hPa | 0 mm | - | 0 W/m² | - |
| 1777891483 | 7.78° C | 86% | 1013 hPa | 0 mm | - | 0 W/m² | - |
* Rain latest hour (hover to see other rain measurements)
** Current wind speed in m/s (hover to see current wind gust speed)